Temperature
14 14 15 15 15 15 15 15 15 15 15 15 16 16 16 16 16 15 16 16 16 16 15 15 15 15 15 15 15 15 15 15 15 15 15 15 15 15 15 15 15 15 15
15 14 14 15 15 15 15 15 15 15 15 15 15 16 16 16 15 15 15 15 15 15 15 15 15 15 15 15 15 15 15 15 15 15 15 15 15 15 15 15 15 14 14
15 14 14 14 14 14 15 15 15 15 15 15 15 15 15 15 15 15 15 15 15 15 15 15 15 15 15 15 15 15 15 15 15 15 14 14 14 14 14 14 14 14 14
14 14 14 14 14 14 14 15 15 15 15 15 15 15 15 15 15 15 15 15 15 15 15 15 15 15 15 15 15 15 15 14 14 14 14 14 14 14 14 14 14 14 14
14 14 14 14 14 14 14 14 14 15 15 15 15 15 15 15 15 15 15 15 15 15 15 15 15 14 14 14 14 14 14 14 14 14 14 14 14 14 14 14 14 14 14
14 14 14 14 14 14 14 14 14 14 14 15 15 15 15 15 15 15 15 15 15 15 15 14 14 14 14 14 14 14 14 14 14 14 14 13 13 13 13 13 14 13 13
13 13 13 13 14 14 14 14 14 14 14 14 14 14 15 15 15 15 15 15 15 15 14 14 14 14 14 14 14 14 14 13 13 13 13 13 13 13 13 13 13 13 13
13 13 13 13 13 13 14 14 14 14 14 14 14 14 14 14 15 15 14 14 14 14 14 14 14 14 14 14 14 14 13 13 13 13 13 13 13 13 13 13 13 13 13
13 13 13 13 13 13 13 13 13 14 14 14 14 14 14 14 14 14 14 14 14 14 14 14 14 14 14 14 13 13 13 13 13 13 13 13 13 13 13 13 13 13 13
12 12 12 13 13 13 13 13 13 13 13 13 13 13 14 14 14 14 14 14 14 14 14 14 14 13 13 13 13 13 13 13 13 13 13 12 12 12 12 12 12 12 12
12 12 12 12 12 12 13 13 13 13 13 13 13 13 13 14 14 14 14 14 14 13 13 13 13 13 13 13 13 13 13 13 13 12 12 12 12 12 12 12 12 12 12
11 11 12 12 12 12 12 12 12 13 13 13 13 13 13 13 13 13 13 13 13 13 13 13 13 13 13 13 13 13 13 12 12 12 12 12 12 12 12 12 12 12 12
11 11 11 11 11 11 12 12 12 12 12 12 12 12 12 13 13 13 13 13 13 13 13 13 13 12 12 12 12 12 12 12 12 12 12 12 11 11 11 12 11 11 11
11 11 11 11 11 11 11 11 11 11 11 12 12 12 12 12 12 13 12 12 12 12 12 12 12 12 12 12 12 12 12 12 12 11 11 11 11 11 11 11 11 11 11
11 11 11 11 10 10 11 11 11 11 11 11 12 12 12 12 12 12 12 12 12 12 12 12 12 12 12 12 12 12 11 11 11 11 11 11 11 11 11 11 11 11 10
11 11 11 10 10 10 10 10 10 11 11 11 11 11 11 11 11 11 12 12 12 12 12 11 12 12 12 11 11 11 11 11 11 11 11 11 11 11 11 10 10 10 10
10 10 10 10 10 10 10 10 10 10 10 10 11 11 11 11 11 11 11 11 11 11 11 11 11 11 11 11 11 11 11 11 11 11 11 10 10 10 10 10 10 10 10
10 10 10 10 10 10 10 10 10 10 10 10 10 10 10 11 11 11 11 11 11 11 11 11 11 11 11 11 11 11 10 10 10 10 10 10 10 10 10 10 10 10 10
10 10 10 10 10 10 10 10 10 9 10 10 10 10 10 10 10 10 10 10 11 11 10 10 10 10 10 10 10 10 10 10 10 10 10 10 10 10 10 10 10 10 9
9 9 9 9 9 9 9 9 9 9 9 9 9 9 9 9 10 10 10 10 10 10 10 10 10 10 10 10 10 10 9 10 9 9 9 10 10 9 9 9 9 9 9
9 9 9 9 9 9 9 9 9 9 9 9 9 9 9 9 9 9 9 9 10 10 10 10 10 10 10 9 9 9 9 9 9 9 9 9 9 9 9 9 9 9 9
9 9 9 8 9 9 8 8 8 8 8 8 8 8 8 8 9 9 9 9 9 9 9 9 9 9 9 9 9 8 8 8 8 8 8 9 9 9 9 9 9 9 9
9 8 8 8 8 8 8 8 8 8 8 8 8 8 8 8 8 9 9 9 9 9 9 9 9 9 9 9 9 9 9 8 8 8 8 8 8 8 8 8 8 8 8
8 8 8 8 8 8 8 8 8 8 8 8 8 8 8 8 8 8 8 8 8 8 8 9 8 9 9 9 8 8 9 9 8 8 8 8 8 8 8 8 8 8 8
8 8 8 8 8 8 8 8 8 7 7 7 7 8 8 7 8 8 8 8 8 8 8 8 8 8 8 8 8 8 8 8 8 8 8 8 8 8 8 8 8 8 8
8 8 7 7 7 7 7 7 7 7 7 7 7 7 7 7 7 7 7 7 8 8 8 8 8 8 8 8 8 8 8 8 8 8 8 8 8 8 7 7 8 7 7
Wind_Speed
2 3 2 3 4 4 5 5 6 6 6 7 8 9 10 10 10 11 11 11 11 11 11 11 11 12 12 12 13 13 13 13 14 13 13 13 13 14 14 14 14 13 15
2 2 2 3 4 4 5 5 5 5 6 6 7 7 9 10 10 11 11 10 10 10 11 11 11 11 12 12 13 13 14 13 13 13 13 12 13 13 13 13 13 12 14
1 2 2 3 4 4 4 4 5 5 5 5 6 6 7 8 10 10 11 10 10 10 10 11 11 11 12 12 12 13 13 13 12 12 11 10 11 12 13 13 13 13 13
0 1 2 3 4 5 4 4 4 5 5 5 5 6 6 7 8 10 10 10 10 10 10 11 11 11 11 12 12 12 12 12 11 11 9 8 9 11 12 12 13 13 13
1 0 1 3 4 4 4 4 4 5 5 4 4 5 6 7 7 9 10 10 10 10 10 11 12 12 12 12 12 12 11 11 11 11 10 9 9 11 12 12 12 12 13
2 2 1 2 3 4 4 4 4 5 5 5 4 5 6 6 7 8 9 9 10 11 11 11 12 12 12 12 12 11 11 11 11 10 9 9 9 11 12 12 12 13 13
2 3 1 1 1 3 3 4 4 5 5 5 5 4 6 6 7 7 8 9 10 10 11 11 12 12 12 12 12 12 12 12 12 10 9 8 9 11 12 13 13 13 13
1 2 2 0 0 2 3 3 3 5 6 5 5 4 5 6 7 7 8 9 10 10 10 11 11 12 12 12 12 12 12 12 10 9 8 8 9 11 12 12 12 12 12
2 2 2 2 0 0 1 2 3 4 6 6 6 5 5 5 6 6 8 9 9 10 10 10 10 11 12 12 12 12 12 12 10 8 8 7 9 10 11 11 11 11 11
2 2 2 2 2 1 0 2 3 4 5 6 6 5 5 5 5 6 8 9 9 9 9 10 10 11 12 12 12 12 12 11 10 8 7 7 9 9 10 10 10 10 11
3 2 1 2 2 2 1 1 1 2 4 5 5 5 5 4 5 6 7 9 9 9 9 9 10 11 11 11 12 12 10 9 9 7 7 8 9 9 9 10 10 10 10
3 3 2 1 1 1 1 1 1 1 2 3 4 4 4 4 4 5 7 9 9 9 9 9 10 10 10 9 10 10 9 9 8 7 6 8 8 9 9 9 9 9 9
4 3 3 2 1 0 1 0 1 1 0 2 4 5 4 4 4 5 5 6 7 7 7 8 8 7 8 8 8 9 9 8 7 6 6 8 8 8 8 8 9 9 9
4 4 3 2 1 1 0 0 0 0 1 1 2 5 4 3 3 3 4 5 5 6 7 7 7 7 7 8 8 8 8 8 7 6 7 8 7 7 8 9 9 9 9
5 5 4 3 2 1 1 1 1 0 1 0 2 3 5 3 3 3 3 4 5 6 6 6 6 6 6 6 7 7 7 7 8 8 7 8 7 7 7 8 9 9 8
5 5 4 3 3 2 2 2 2 1 1 1 1 2 4 4 3 4 3 4 4 6 6 6 6 6 5 5 6 6 6 7 8 8 8 8 7 7 7 7 7 8 7
5 4 4 4 2 2 2 3 2 2 2 1 0 2 3 4 4 4 4 4 4 6 7 7 6 6 5 5 5 5 6 6 7 7 7 7 6 6 7 6 6 6 7
3 3 3 3 2 2 2 2 2 2 2 1 1 1 2 4 4 4 4 4 5 7 6 5 4 4 4 4 4 3 4 4 5 6 6 6 6 6 6 6 6 6 6
3 3 2 2 3 2 1 1 2 2 2 2 1 1 2 3 4 3 3 4 6 5 5 5 4 4 5 4 4 3 3 3 3 4 5 5 6 6 5 5 6 6 5
1 1 1 2 2 2 1 1 1 2 2 2 1 1 2 2 3 3 3 4 5 5 4 4 5 4 4 5 4 4 3 2 3 3 3 4 5 5 5 6 5 5 5
0 1 1 0 1 2 2 1 2 2 2 1 1 2 2 2 3 4 3 3 3 4 5 5 5 5 3 4 4 3 3 2 2 1 2 2 3 4 5 5 5 5 4
1 1 1 1 1 1 1 2 1 2 2 2 1 2 2 2 3 4 4 4 3 4 5 5 5 3 2 3 3 3 1 1 0 0 1 2 2 3 3 4 5 5 4
1 1 2 2 2 2 2 2 2 2 2 1 1 1 1 1 2 3 4 4 4 4 5 6 5 4 4 1 2 3 3 3 1 0 1 2 2 2 2 3 3 4 4
2 1 1 1 1 2 3 3 4 3 2 2 2 1 1 1 2 3 4 4 5 4 5 6 5 3 5 3 1 1 1 3 3 1 1 1 2 3 3 2 3 3 4
1 1 0 1 1 1 2 3 4 3 2 2 2 3 1 1 2 3 3 3 4 4 4 5 4 4 4 3 2 1 2 2 2 3 2 1 1 2 2 3 3 4 4
1 0 0 1 1 1 2 2 3 4 3 4 3 3 2 1 1 2 3 3 3 4 5 5 5 5 4 4 3 2 2 2 2 2 2 2 2 2 2 2 3 4 5
Wind_Direction
278 287 232 153 136 128 121 116 109 111 115 122 127 133 137 137 136 137 136 132 126 124 121 119 117 117 116 113 111 110 109 104 101 98 98 100 100 100 96 93 89 85 88
240 258 195 157 149 142 133 123 120 114 117 122 128 134 140 144 143 142 141 136 132 128 125 122 119 119 120 117 114 113 111 106 103 99 98 98 101 101 100 98 96 93 92
235 207 178 155 156 152 145 138 136 128 125 130 136 138 142 146 150 148 144 141 136 133 131 125 121 120 120 120 117 115 113 110 105 100 97 98 105 106 105 102 100 97 94
207 177 178 160 154 154 154 154 149 147 139 139 147 149 148 148 150 153 150 146 141 138 136 131 125 123 121 122 122 120 118 114 108 101 95 96 107 111 109 106 103 100 96
20 54 190 159 153 152 159 162 168 168 159 149 157 164 158 155 156 153 153 151 149 144 140 135 129 128 126 125 126 124 122 118 110 102 96 94 103 111 108 105 104 101 98
7 7 353 143 157 159 161 171 178 180 173 162 162 170 170 165 161 156 152 152 150 146 142 139 136 132 131 130 130 127 125 120 111 103 99 98 105 112 109 106 104 101 97
4 2 5 107 168 171 171 176 187 185 178 174 167 176 181 172 162 157 151 150 150 148 146 143 142 139 135 134 132 129 124 119 112 106 102 102 108 113 110 107 104 100 95
28 11 17 65 174 201 191 199 202 197 184 179 176 173 177 177 167 164 159 151 149 150 151 147 143 141 136 134 132 129 126 120 113 107 104 104 112 115 111 107 106 102 99
25 27 11 5 347 204 220 230 226 211 197 186 179 173 165 164 167 168 162 158 155 155 154 148 143 143 140 135 132 128 127 123 114 110 109 111 117 116 114 111 108 105 103
357 8 9 12 349 331 248 254 241 221 207 192 179 166 164 164 168 170 163 158 157 157 155 149 143 141 139 137 132 126 125 122 115 112 113 118 120 119 119 118 113 110 105
332 330 343 360 354 349 357 271 282 241 207 181 175 163 150 155 160 162 165 158 151 148 148 148 142 136 131 132 130 125 118 118 118 113 119 125 123 120 120 120 118 115 110
285 286 277 275 301 320 298 351 334 309 208 165 156 153 141 141 145 146 148 151 148 145 140 136 132 131 120 119 122 122 115 116 115 112 120 129 129 125 120 120 121 120 117
256 272 275 273 278 274 341 13 7 340 351 150 147 148 137 129 130 131 129 132 134 132 124 120 110 113 117 118 117 117 116 113 110 109 115 123 128 128 127 127 125 122 119
253 259 260 264 244 227 150 60 99 49 27 92 139 147 138 122 121 123 119 126 124 125 118 113 109 107 111 118 120 117 114 111 107 104 106 112 115 125 131 131 127 123 121
250 249 247 245 226 218 173 181 158 172 165 160 132 148 151 141 157 136 129 128 128 128 125 121 118 115 112 112 115 117 113 110 106 103 100 103 106 113 123 133 133 129 125
249 247 241 237 226 206 186 184 184 171 174 162 143 151 155 155 154 147 144 137 132 134 134 128 129 124 116 113 109 111 114 114 110 108 103 98 100 108 115 129 136 135 132
247 242 230 230 222 209 191 188 177 167 172 136 82 159 154 144 152 150 154 151 140 138 129 123 117 115 115 110 107 106 107 110 113 110 107 101 97 97 104 110 128 136 138
252 244 236 225 212 216 206 184 165 168 156 123 107 133 145 145 146 149 156 157 142 135 129 130 128 118 119 122 114 104 100 106 109 112 110 107 103 99 101 103 110 121 129
255 251 239 217 208 207 202 167 163 153 143 125 124 104 127 148 148 145 158 149 144 136 134 140 133 131 131 124 113 96 90 97 103 112 109 111 111 109 106 103 100 107 111
262 250 249 223 201 167 119 112 132 129 123 111 111 106 125 152 150 136 138 144 144 142 140 136 134 122 132 129 111 87 68 77 89 109 122 120 117 115 116 113 110 106 108
325 208 222 216 168 131 129 146 156 165 159 136 109 111 124 151 156 139 143 146 151 155 154 145 133 127 119 125 106 84 46 60 90 107 109 118 122 128 123 120 118 116 112
255 230 205 203 173 158 166 164 158 151 155 149 112 92 107 131 150 143 149 158 162 149 145 147 141 134 135 145 132 124 118 33 346 151 155 168 156 145 138 136 132 127 118
274 250 223 205 188 178 151 127 112 98 84 87 105 115 94 128 138 134 149 153 158 162 165 161 161 150 157 169 149 147 157 191 210 276 212 194 186 174 169 153 149 148 144
270 259 227 205 185 169 152 149 155 156 163 176 164 148 123 121 129 125 148 160 160 161 167 170 166 154 156 166 142 82 122 143 154 170 277 230 203 200 199 180 172 172 168
265 207 204 170 164 163 162 166 164 164 164 141 132 129 125 94 115 117 141 162 162 162 170 171 163 156 160 166 164 141 99 65 119 152 191 237 251 227 209 190 184 188 185
21 61 116 153 168 154 153 158 163 162 159 152 151 152 149 146 111 110 129 149 157 160 171 175 168 166 169 166 162 159 154 155 174 159 177 205 225 250 223 200 191 199 196
Height
1507 1508 1510 1511 1512 1513 1514 1515 1516 1516 1517 1518 1519 1520 1521 1522 1523 1524 1525 1526 1527 1528 1529 1530 1531 1532 1532 1533 1534 1535 1536 1536 1537 1538 1539 1540 1541 1541 1542 1543 1544 1544 1545
1507 1508 1509 1510 1511 1512 1513 1514 1515 1516 1517 1518 1519 1520 1521 1522 1523 1524 1525 1526 1527 1528 1529 1530 1531 1532 1533 1534 1535 1536 1536 1537 1538 1539 1540 1541 1542 1543 1543 1544 1545 1546 1546
1506 1507 1508 1510 1511 1512 1513 1514 1515 1516 1516 1517 1518 1519 1520 1521 1522 1523 1525 1526 1527 1528 1529 1530 1531 1532 1533 1534 1535 1536 1537 1538 1539 1540 1541 1542 1543 1544 1544 1545 1546 1547 1547
1506 1507 1508 1509 1510 1511 1512 1513 1514 1515 1516 1516 1518 1519 1520 1521 1522 1523 1524 1525 1526 1528 1529 1530 1531 1532 1533 1534 1535 1537 1538 1539 1540 1541 1542 1543 1544 1545 1545 1546 1547 1548 1548
1506 1506 1507 1508 1509 1510 1511 1512 1513 1514 1515 1516 1517 1518 1519 1520 1521 1522 1523 1524 1526 1527 1529 1530 1531 1532 1533 1535 1536 1537 1538 1539 1540 1541 1542 1543 1544 1545 1546 1547 1548 1548 1549
1505 1506 1507 1508 1508 1509 1510 1511 1512 1513 1514 1514 1515 1516 1518 1519 1520 1521 1522 1524 1525 1527 1528 1529 1531 1532 1533 1535 1536 1537 1538 1540 1541 1542 1543 1544 1545 1546 1547 1548 1549 1549 1550
1504 1505 1506 1506 1507 1508 1509 1509 1510 1511 1512 1513 1514 1515 1516 1517 1519 1520 1521 1523 1524 1526 1527 1529 1530 1532 1533 1535 1536 1538 1539 1540 1541 1542 1543 1545 1546 1547 1548 1548 1549 1550 1550
1503 1504 1504 1505 1506 1506 1507 1508 1508 1509 1511 1511 1512 1513 1514 1516 1517 1519 1520 1522 1523 1525 1526 1528 1530 1531 1533 1534 1536 1538 1539 1540 1541 1543 1544 1545 1546 1547 1548 1549 1549 1550 1551
1502 1502 1502 1503 1504 1505 1505 1506 1507 1508 1509 1510 1511 1512 1513 1514 1516 1517 1519 1520 1522 1524 1526 1527 1529 1530 1532 1534 1536 1537 1539 1540 1542 1543 1544 1545 1546 1547 1548 1549 1549 1550 1550
1500 1500 1500 1501 1502 1502 1503 1504 1505 1506 1506 1507 1508 1510 1511 1513 1514 1516 1517 1519 1520 1522 1524 1526 1528 1530 1532 1533 1535 1537 1539 1540 1541 1543 1544 1545 1546 1547 1548 1548 1549 1550 1550
1497 1498 1498 1498 1499 1500 1501 1502 1502 1503 1504 1505 1506 1508 1509 1511 1512 1514 1515 1517 1519 1521 1523 1525 1527 1528 1531 1533 1534 1536 1538 1539 1541 1542 1544 1545 1546 1547 1547 1548 1549 1549 1550
1495 1496 1496 1496 1496 1497 1498 1499 1499 1500 1502 1503 1504 1505 1507 1509 1510 1512 1514 1516 1517 1519 1521 1523 1525 1527 1529 1532 1533 1535 1537 1539 1540 1542 1543 1544 1545 1546 1547 1547 1548 1549 1549
1493 1493 1493 1493 1494 1494 1495 1496 1496 1498 1499 1500 1502 1503 1505 1507 1508 1510 1512 1514 1515 1517 1519 1521 1524 1526 1528 1530 1532 1534 1536 1538 1539 1541 1542 1543 1545 1546 1546 1547 1548 1548 1549
1490 1491 1491 1491 1491 1491 1492 1493 1494 1495 1497 1498 1499 1501 1502 1504 1506 1508 1510 1512 1513 1515 1517 1520 1522 1525 1527 1529 1531 1533 1535 1537 1539 1540 1541 1543 1544 1545 1546 1547 1547 1548 1548
1488 1488 1488 1488 1488 1488 1489 1490 1491 1493 1494 1495 1497 1498 1500 1502 1503 1506 1508 1510 1512 1514 1516 1518 1521 1523 1526 1528 1530 1532 1534 1536 1537 1539 1540 1542 1543 1544 1545 1546 1546 1547 1548
1485 1485 1485 1485 1485 1486 1486 1487 1489 1490 1492 1493 1494 1496 1498 1499 1501 1503 1506 1508 1510 1512 1515 1517 1519 1522 1524 1526 1528 1531 1533 1535 1536 1538 1539 1541 1542 1543 1544 1545 1546 1546 1547
1482 1482 1482 1483 1483 1483 1484 1485 1486 1488 1489 1490 1492 1493 1495 1497 1499 1501 1504 1506 1508 1511 1513 1516 1518 1520 1522 1524 1527 1529 1531 1533 1535 1536 1538 1539 1540 1541 1542 1543 1544 1545 1545
1478 1479 1479 1480 1480 1481 1481 1482 1483 1485 1486 1488 1489 1491 1492 1495 1497 1500 1502 1504 1506 1509 1511 1514 1516 1518 1520 1522 1524 1527 1529 1531 1533 1534 1536 1537 1539 1540 1541 1542 1542 1543 1544
1475 1475 1476 1476 1477 1478 1478 1479 1481 1482 1483 1485 1488 1489 1490 1493 1495 1497 1499 1502 1504 1507 1509 1512 1514 1516 1518 1520 1523 1525 1527 1529 1531 1532 1534 1535 1536 1537 1539 1540 1541 1541 1542
1473 1473 1473 1473 1474 1475 1476 1477 1478 1479 1481 1483 1485 1487 1489 1491 1493 1496 1497 1500 1502 1505 1507 1509 1512 1515 1517 1519 1521 1523 1525 1527 1529 1530 1532 1533 1534 1535 1536 1538 1539 1539 1540
1470 1470 1471 1471 1471 1472 1473 1474 1475 1476 1478 1480 1483 1484 1487 1489 1491 1493 1495 1498 1500 1502 1504 1507 1509 1512 1514 1516 1519 1520 1522 1524 1526 1528 1529 1530 1531 1533 1534 1535 1536 1537 1538
1468 1468 1468 1469 1469 1470 1471 1472 1474 1475 1476 1478 1480 1482 1484 1487 1489 1491 1493 1495 1498 1500 1502 1504 1506 1508 1511 1514 1516 1517 1520 1523 1523 1524 1526 1527 1529 1530 1532 1532 1533 1535 1536
1465 1466 1466 1467 1468 1468 1469 1470 1471 1473 1474 1476 1477 1479 1482 1485 1486 1488 1490 1493 1496 1498 1499 1502 1504 1506 1507 1511 1514 1515 1517 1517 1519 1521 1523 1524 1526 1527 1528 1530 1531 1532 1533
1464 1465 1465 1465 1466 1466 1467 1468 1469 1470 1471 1473 1475 1477 1480 1482 1483 1485 1488 1490 1493 1495 1497 1499 1502 1504 1506 1508 1510 1512 1514 1514 1516 1517 1520 1521 1522 1524 1525 1526 1528 1529 1530
1463 1463 1463 1464 1464 1465 1466 1466 1467 1468 1470 1471 1473 1475 1477 1479 1481 1482 1485 1487 1489 1492 1494 1496 1499 1501 1504 1506 1507 1509 1510 1511 1513 1514 1515 1517 1519 1520 1521 1523 1524 1525 1526
1461 1462 1462 1462 1463 1464 1464 1465 1465 1466 1467 1469 1470 1472 1474 1476 1478 1479 1482 1484 1486 1488 1491 1493 1496 1499 1501 1503 1505 1506 1507 1508 1510 1511 1512 1513 1515 1516 1518 1519 1520 1522 1523